Home   Weather   Košice   Past weeks

Flag for Slovakia Past Weather in Košice, Slovakia — Yesterday and Last 2 Weeks

Now
28 °F

Clear.


Feels Like: 28 °F
Forecast: 17 / 31 °F
Wind: 2 mph from North

Location: Kosice - Barca

Current Time: Dec 3, 2016 at 5:51:56 am

Latest Report: Dec 3, 2016 at 5:30 am


Visibility: 10 mi

Pressure: 30.04 "Hg

Humidity: 80%

Dew Point: 23 °F

Location of KošiceLocation

Past Weather in Košice — Graph

°F

Košice Temperature Yesterday

Maximum temperature yesterday: 43 °F (at 9:30 am)
Minimum temperature yesterday: 32 °F (at 12:00 am)
Average temperature yesterday: 37 °F

High & Low Weather Summary for the Past Weeks

 TemperatureHumidityPressure
High55 °F (Nov 19, 12:00 pm)100% (Nov 18, 5:00 am)30.39 "Hg (Nov 18, 5:00 am)
Low23 °F (Nov 29, 7:00 am)35% (Nov 29, 12:30 pm)29.45 "Hg (Dec 2, 6:00 am)
Average39 °F80%30.09 "Hg
* Reported Nov 18 5:00 am — Dec 3 5:00 am, Košice, Weather by CustomWeather, © 2016

Note: Actual official high and low records may vary slightly from our data, if they occured in-between our weather recording intervals... More about our weather records

Advertising

Košice Weather History for the Previous 24 Hours

Scroll right to see more
 ConditionsComfort  
Time TempWeatherWind HumidityBarometerVisibility
5:00 am
Sat, Dec 3
28 °FClear.2 mph80%30.04 "Hg10 mi
4:30 am30 °FClear.7 mph69%30.04 "Hg10 mi
4:00 am28 °FPassing clouds.8 mph80%30.04 "HgN/A
3:30 am30 °FClear.7 mph75%30.04 "Hg10 mi
3:00 am32 °FClear.7 mph69%30.01 "Hg10 mi
2:30 am30 °FClear.6 mph80%30.01 "Hg10 mi
2:00 am32 °FClear.8 mph69%30.04 "Hg10 mi
1:30 am34 °FClear.8 mph65%30.01 "Hg10 mi
1:00 am34 °FClear.8 mph65%30.01 "Hg10 mi
12:30 am37 °FPassing clouds.8 mph48%30.01 "HgN/A
12:00 am37 °FClear.10 mph48%30.01 "Hg10 mi
11:30 pm
Fri, Dec 2
34 °FClear.6 mph65%30.01 "Hg10 mi
11:00 pm36 °FPassing clouds.5 mph60%29.98 "HgN/A
10:30 pm36 °FClear.5 mph60%29.98 "Hg10 mi
10:00 pm36 °FPassing clouds.2 mph56%29.98 "HgN/A
9:30 pm36 °FPassing clouds.7 mph52%29.98 "HgN/A
9:00 pm37 °FPassing clouds.10 mph48%29.95 "HgN/A
8:30 pm37 °FClear.9 mph52%29.95 "Hg10 mi
8:00 pm36 °FPassing clouds.6 mph60%29.95 "HgN/A
7:30 pm36 °FPartly cloudy.8 mph60%29.95 "HgN/A
7:00 pm36 °FPassing clouds.7 mph60%29.92 "HgN/A
6:30 pm36 °FPassing clouds.10 mph56%29.92 "HgN/A
6:00 pm36 °FClear.12 mph56%29.89 "Hg10 mi
5:30 pm36 °FClear.18 mph56%29.86 "Hg10 mi
5:00 pm36 °FPassing clouds.17 mph56%29.86 "HgN/A
4:30 pm37 °FPassing clouds.18 mph52%29.83 "HgN/A
4:00 pm37 °FPassing clouds.22 mph56%29.83 "HgN/A
3:30 pm37 °FPassing clouds.23 mph56%29.77 "HgN/A
3:00 pm37 °FScattered clouds.20 mph60%29.77 "HgN/A
2:30 pm37 °FScattered clouds.23 mph60%29.74 "HgN/A
2:00 pm39 °FScattered clouds.21 mph61%29.68 "HgN/A
1:30 pm39 °FPassing clouds.22 mph61%29.65 "HgN/A
1:00 pm39 °FPassing clouds.28 mph61%29.62 "HgN/A
12:30 pm39 °FScattered clouds.26 mph65%29.59 "HgN/A
12:00 pm39 °FBroken clouds.25 mph70%29.56 "HgN/A
11:30 am41 °FScattered clouds.23 mph61%29.53 "HgN/A
11:00 am41 °FScattered clouds.25 mph57%29.53 "HgN/A
10:30 am43 °FPassing clouds.25 mph49%29.50 "HgN/A
10:00 am43 °FScattered clouds.24 mph46%29.50 "HgN/A
9:30 am43 °FScattered clouds.26 mph46%29.50 "HgN/A
9:00 am41 °FPassing clouds.30 mph49%29.50 "HgN/A
8:30 am41 °FSunny.21 mph49%29.50 "Hg10 mi
8:00 am39 °FPassing clouds.24 mph56%29.47 "HgN/A
7:30 am39 °FPartly sunny.8 mph70%29.47 "HgN/A
7:00 am34 °FLight snow. Passing clouds.9 mph87%29.50 "HgN/A
6:30 am34 °FPassing clouds.8 mph81%29.45 "HgN/A
6:00 am34 °FPassing clouds.9 mph87%29.45 "HgN/A
5:30 am34 °FPassing clouds.10 mph87%29.47 "HgN/A
5:00 am32 °FPassing clouds.5 mph87%29.47 "HgN/A
Weather by CustomWeather, © 2016

See weather overviewHow to use our weather pages